| time (UTC) | temp F | wind direction | speed MPH | gust MPH | rain 1hr in | rain 24hr in | rain mn in | humidity % | barometer mb |
| 20260506073204 | 32 | 0 | 0.0 | 0.0 | 0.00 | 0.47 | 0.02 | 95 | 1018.0 |
| 20260506071704 | 32 | 0 | 0.0 | 0.0 | 0.01 | 0.47 | 0.02 | 95 | 1018.0 |
| 20260506061704 | 32 | 0 | 0.0 | 0.0 | 0.03 | 0.46 | 0.01 | 95 | 1017.8 |
| 20260506061204 | 32 | 0 | 0.0 | 0.0 | 0.03 | 0.46 | 0.01 | 95 | 1017.8 |
| 20260506050704 | 32 | 0 | 2.0 | 3.0 | 0.07 | 0.42 | 0.42 | 95 | 1017.6 |
| 20260506044204 | 32 | 0 | 2.0 | 3.0 | 0.09 | 0.41 | 0.41 | 95 | 1017.2 |
| 20260506041704 | 32 | 0 | 3.0 | 5.0 | 0.09 | 0.37 | 0.36 | 94 | 1017.5 |
| 20260506040704 | 32 | 0 | 1.0 | 3.0 | 0.09 | 0.38 | 0.35 | 94 | 1017.4 |
| 20260506034204 | 32 | 0 | 2.0 | 6.0 | 0.12 | 0.37 | 0.32 | 94 | 1017.3 |
| 20260506030704 | 32 | 0 | 2.0 | 3.0 | 0.09 | 0.35 | 0.26 | 94 | 1016.6 |
| 20260506030204 | 32 | 0 | 2.0 | 3.0 | 0.07 | 0.33 | 0.24 | 94 | 1016.6 |
| 20260506024703 | 32 | 0 | 1.0 | 3.0 | 0.03 | 0.30 | 0.20 | 94 | 1016.3 |
| 20260506024203 | 32 | 0 | 1.0 | 3.0 | 0.03 | 0.30 | 0.20 | 94 | 1016.2 |
| 20260506021203 | 32 | 0 | 2.0 | 3.0 | 0.00 | 0.27 | 0.17 | 94 | 1015.8 |
| 20260506020704 | 32 | 0 | 2.0 | 3.0 | 0.00 | 0.27 | 0.17 | 94 | 1015.7 |
| 20260506020204 | 33 | 0 | 2.0 | 6.0 | 0.00 | 0.27 | 0.17 | 94 | 1015.7 |
| 20260506011704 | 32 | 0 | 3.0 | 5.0 | 0.00 | 0.27 | 0.17 | 94 | 1015.3 |
| 20260506004704 | 32 | 0 | 5.0 | 8.0 | 0.00 | 0.27 | 0.17 | 94 | 1015.3 |
| 20260506004204 | 32 | 0 | 4.0 | 9.0 | 0.00 | 0.27 | 0.17 | 94 | 1015.3 |
| 20260506003204 | 32 | 0 | 6.0 | 9.0 | 0.00 | 0.27 | 0.17 | 94 | 1015.0 |
| 20260506001204 | 32 | 0 | 6.0 | 12.0 | 0.00 | 0.27 | 0.17 | 94 | 1015.0 |
| 20260506000205 | 32 | 0 | 6.0 | 12.0 | 0.00 | 0.27 | 0.17 | 94 | 1014.8 |
| 20260505234704 | 33 | 0 | 4.0 | 9.0 | 0.00 | 0.27 | 0.17 | 94 | 1014.7 |
| 20260505234204 | 33 | 0 | 6.0 | 12.0 | 0.00 | 0.27 | 0.17 | 94 | 1014.6 |
| 20260505233704 | 33 | 0 | 5.0 | 10.0 | 0.00 | 0.27 | 0.17 | 94 | 1014.6 |
| 20260505233204 | 33 | 0 | 5.0 | 12.0 | 0.00 | 0.27 | 0.17 | 94 | 1014.9 |
| 20260505231704 | 33 | 0 | 7.0 | 12.0 | 0.00 | 0.27 | 0.17 | 94 | 1014.3 |
| 20260505231204 | 33 | 0 | 7.0 | 12.0 | 0.00 | 0.27 | 0.17 | 94 | 1014.3 |
| 20260505230204 | 33 | 0 | 7.0 | 12.0 | 0.00 | 0.27 | 0.17 | 94 | 1014.1 |
| 20260505223204 | 34 | 0 | 8.0 | 16.0 | 0.00 | 0.27 | 0.17 | 93 | 1013.9 |
| 20260505220204 | 37 | 0 | 11.0 | 16.0 | 0.00 | 0.27 | 0.17 | 94 | 1013.4 |
| 20260505214703 | 38 | 38 | 9.0 | 12.0 | 0.01 | 0.27 | 0.17 | 94 | 1013.3 |
| 20260505211704 | 39 | 19 | 6.0 | 9.0 | 0.01 | 0.27 | 0.17 | 94 | 1013.3 |
| 20260505211204 | 39 | 31 | 6.0 | 10.0 | 0.01 | 0.27 | 0.17 | 94 | 1013.4 |
| 20260505204704 | 39 | 53 | 6.0 | 9.0 | 0.00 | 0.26 | 0.16 | 94 | 1013.9 |
| 20260505200704 | 39 | 64 | 4.0 | 9.0 | 0.00 | 0.26 | 0.16 | 94 | 1014.3 |
| 20260505194704 | 39 | 51 | 5.0 | 10.0 | 0.00 | 0.26 | 0.16 | 94 | 1014.5 |
| 20260505193204 | 38 | 64 | 3.0 | 9.0 | 0.00 | 0.26 | 0.16 | 94 | 1014.4 |
| 20260505190204 | 39 | 64 | 3.0 | 6.0 | 0.00 | 0.26 | 0.16 | 94 | 1014.5 |
| 20260505184704 | 39 | 39 | 5.0 | 8.0 | 0.00 | 0.26 | 0.16 | 94 | 1014.7 |
| 20260505181204 | 38 | 11 | 3.0 | 7.0 | 0.01 | 0.26 | 0.16 | 94 | 1015.2 |
| 20260505180204 | 38 | 56 | 5.0 | 9.0 | 0.01 | 0.26 | 0.16 | 94 | 1015.3 |
| 20260505173704 | 38 | 65 | 5.0 | 8.0 | 0.02 | 0.26 | 0.16 | 94 | 1015.7 |
| 20260505173203 | 38 | 67 | 6.0 | 9.0 | 0.02 | 0.26 | 0.16 | 94 | 1015.7 |
| 20260505170703 | 37 | 55 | 3.0 | 5.0 | 0.01 | 0.25 | 0.15 | 94 | 1015.9 |
| 20260505164703 | 37 | 18 | 2.0 | 5.0 | 0.01 | 0.25 | 0.15 | 94 | 1016.1 |
| 20260505161203 | 37 | 25 | 3.0 | 5.0 | 0.03 | 0.24 | 0.14 | 94 | 1016.3 |
| 20260505153204 | 36 | 354 | 2.0 | 8.0 | 0.04 | 0.22 | 0.12 | 94 | 1016.4 |
| 20260505151204 | 36 | 32 | 3.0 | 5.0 | 0.04 | 0.21 | 0.11 | 94 | 1016.4 |
| 20260505150704 | 36 | 24 | 3.0 | 6.0 | 0.04 | 0.21 | 0.11 | 94 | 1016.5 |
| 20260505150203 | 36 | 25 | 3.0 | 8.0 | 0.03 | 0.20 | 0.10 | 94 | 1016.5 |
| 20260505140204 | 35 | 18 | 3.0 | 12.0 | 0.02 | 0.17 | 0.07 | 93 | 1016.8 |
| 20260505124704 | 36 | 8 | 6.0 | 12.0 | 0.01 | 0.14 | 0.04 | 93 | 1015.6 |
| 20260505123204 | 36 | 358 | 6.0 | 12.0 | 0.02 | 0.14 | 0.04 | 93 | 1015.4 |
| 20260505121703 | 36 | 5 | 6.0 | 12.0 | 0.03 | 0.14 | 0.04 | 92 | 1015.6 |
| 20260505120704 | 36 | 10 | 7.0 | 12.0 | 0.02 | 0.13 | 0.03 | 92 | 1015.4 |
| 20260505120204 | 37 | 4 | 9.0 | 15.0 | 0.03 | 0.13 | 0.03 | 92 | 1015.3 |
| 20260505114204 | 37 | 11 | 10.0 | 17.0 | 0.02 | 0.12 | 0.02 | 92 | 1015.2 |
| 20260505113704 | 38 | 356 | 9.0 | 13.0 | 0.02 | 0.12 | 0.02 | 92 | 1015.2 |
| 20260505113203 | 38 | 15 | 10.0 | 20.0 | 0.02 | 0.12 | 0.02 | 92 | 1015.1 |
| 20260505111204 | 39 | 8 | 10.0 | 21.0 | 0.01 | 0.11 | 0.01 | 92 | 1014.8 |
| 20260505110703 | 39 | 21 | 9.0 | 18.0 | 0.01 | 0.11 | 0.01 | 92 | 1014.7 |
| 20260505110204 | 39 | 24 | 12.0 | 21.0 | 0.00 | 0.10 | 0.00 | 92 | 1014.9 |
| 20260505100703 | 41 | 15 | 12.0 | 20.0 | 0.00 | 0.10 | 0.00 | 92 | 1013.4 |
| 20260505093704 | 42 | 5 | 9.0 | 14.0 | 0.00 | 0.10 | 0.00 | 91 | 1013.3 |
| 20260505090704 | 42 | 16 | 5.0 | 16.0 | 0.00 | 0.10 | 0.00 | 91 | 1013.1 |
| 20260505090203 | 42 | 0 | 10.0 | 21.0 | 0.00 | 0.10 | 0.00 | 90 | 1013.1 |
| 20260505084204 | 45 | 11 | 14.0 | 21.0 | 0.00 | 0.10 | 0.00 | 89 | 1013.1 |
| 20260505081204 | 46 | 332 | 2.0 | 3.0 | 0.00 | 0.10 | 0.00 | 91 | 1013.0 |